Address 0xadf2904d7d047672ce0a1e345ac21de9bbb1718c 8

Txn Hash Method
Block
From
To
Value [Txn Fee]
0xb9d5213fe4ee7c9f9604f69dab762be1440ad91bb510ec9f6903c5d0bb157469Send82418362022-04-06 13:40:30132 days 3 hrs ago0xadf2904d7d047672ce0a1e345ac21de9bbb1718cOUT0x9c83e39ff8c666a0737330e0da6e135d8a2d91a10 AVAX0.‍00662044985 27.‍425
0x9e4c8afd16912b8037c06915e26aa9aa8667958cef1ace41bc63c5138998a3ceSend82418152022-04-06 13:39:48132 days 3 hrs ago0xadf2904d7d047672ce0a1e345ac21de9bbb1718cOUT0x9c83e39ff8c666a0737330e0da6e135d8a2d91a10 AVAX0.‍004843830925 27.‍425
0x4b1d44a586ac5729006d7be2eef0faeac96e4f97b4c63915874f861c1353915eDeposit82417932022-04-06 13:39:04132 days 3 hrs ago0xadf2904d7d047672ce0a1e345ac21de9bbb1718cOUT 0x4d8d4353b88b3dd250e8214962d963f71714247e0.‍2 AVAX0.‍003377525875 27.‍425
0xbfc875c791fd618f0f0695e43e9e9ff71013b9be26c5ff6ed70644a9bea582f0Transfer69182582022-03-05 17:46:12163 days 23 hrs ago0xadf2904d7d047672ce0a1e345ac21de9bbb1718cOUT0x0f2a5d18ad37395266c0b59e3dfcfe790a0ee8e10 AVAX0.‍0012945 25
0x58ca3e7b6b47eab86dbbab4bbcae1db81d373ebda556f7a820bb4725c53716de0x369da09969182192022-03-05 17:44:53163 days 23 hrs ago0xadf2904d7d047672ce0a1e345ac21de9bbb1718cOUT 0x57abfe1191b1bfe2ec78529c981254371ad1f4ca0.‍00175 AVAX0.‍0116956 25
0xdd141bb81ef2466e9bdc25d00cc5ddff475cfb675b90b4f214b1eb5288f12787Approve69181712022-03-05 17:43:09163 days 23 hrs ago0xadf2904d7d047672ce0a1e345ac21de9bbb1718cOUT0xc8b98e0e1e095312ddbc372c2d7cfec3073b4e510 AVAX0.‍001165075 25
0xd16fe5215b480edc4fd83641d46212c39eb28692edd8952a867538bfa471c0500x78d29ac169181362022-03-05 17:41:54163 days 23 hrs ago0xadf2904d7d047672ce0a1e345ac21de9bbb1718cOUT 0x57abfe1191b1bfe2ec78529c981254371ad1f4ca0.‍00175 AVAX0.‍003810675 25
0x58bdd796b9e861726388b33d9a44f5864211c1271e5d9b787750250db675072b0x78d29ac169181122022-03-05 17:41:08163 days 23 hrs ago0xadf2904d7d047672ce0a1e345ac21de9bbb1718cOUT 0x57abfe1191b1bfe2ec78529c981254371ad1f4ca0.‍00175 AVAX0.‍006215275 25
0xf08e2812a878c3644bfd76d464dab0ac45ebc0540828e00a3a6b77decbe04ec2Approve69181032022-03-05 17:40:50163 days 23 hrs ago0xadf2904d7d047672ce0a1e345ac21de9bbb1718cOUT0x0f2a5d18ad37395266c0b59e3dfcfe790a0ee8e10 AVAX0.‍001165075 25
0xc8c0c909d173086cdf65a9f3e5bea81c41d39f33cc253ace848860d64d40c9e90x39a4f76467394142022-03-01 12:02:26168 days 5 hrs ago0xadf2904d7d047672ce0a1e345ac21de9bbb1718cOUT0x6d194390c1c6992383acc74027b07aeb695e02540 AVAX0.‍0060778 25
0x651558339bffc63796ab729e88db8c7bd6bfb9edbc1d5c77999cdb55bc826f9dAdd Liquidity67394082022-03-01 12:02:14168 days 5 hrs ago0xadf2904d7d047672ce0a1e345ac21de9bbb1718cOUT0x40a9e69e6cc8ab7f1089039e279504e440c6bf080 AVAX0.‍00452395 25
0xd499d570a09d89056d73abfa36d15afca665ded5d4c51b41188ad46748bdd5880x39a4f76467393972022-03-01 12:01:52168 days 5 hrs ago0xadf2904d7d047672ce0a1e345ac21de9bbb1718cOUT0x6d194390c1c6992383acc74027b07aeb695e02540 AVAX0.‍0060781 25
0x3665d1231c3810c9eb45e11628221917bd4e8d50f1d333b54348d6f6bc1dfbf6Approve67393912022-03-01 12:01:37168 days 5 hrs ago0xadf2904d7d047672ce0a1e345ac21de9bbb1718cOUT0xa3c6929f58ac9d647098979a9231b089fe451c2e0 AVAX0.‍001156575 25
0x25b59a927fdf00758625bac380c404e86815253f1da4d10a2b2fe8ae9d2e58780x39a4f76467393862022-03-01 12:01:27168 days 5 hrs ago0xadf2904d7d047672ce0a1e345ac21de9bbb1718cOUT0x6d194390c1c6992383acc74027b07aeb695e02540 AVAX0.‍0060781 25
0xab4e2cd0f6ec8877868dc33291881e1d410b2c888f7e7e49daeca9da4362027bApprove67393812022-03-01 12:01:17168 days 5 hrs ago0xadf2904d7d047672ce0a1e345ac21de9bbb1718cOUT0x6eb373b066f60649e038baeceffb31ea33f612f10 AVAX0.‍001164075 25
0xadfe9ffc967b28302807ce9e6853fd2abc64cd3d8b84be795f20f71052b5de9eApprove67393652022-03-01 12:00:45168 days 5 hrs ago0xadf2904d7d047672ce0a1e345ac21de9bbb1718cOUT0xa3c6929f58ac9d647098979a9231b089fe451c2e0 AVAX0.‍001164075 25
0x43db85d946dd9bfa8ef973a5af20821ab63ca8aae96f5155e4ec93ce17defae70x680e6c9b67393392022-03-01 11:59:53168 days 5 hrs ago0xadf2904d7d047672ce0a1e345ac21de9bbb1718cOUT0x3dcc801b480d1dc370bbb55377cf9d401efa6f3c0 AVAX0.‍004059775 25
0xfc87a259eb8cd1aeb413866535b2d6e8365009b2ca6082d94679b0571196ed02Transfer67388232022-03-01 11:42:31168 days 5 hrs ago0x5161cac7d0aa45c0ddb34147896173ea50424c98 IN 0xadf2904d7d047672ce0a1e345ac21de9bbb1718c1 AVAX0.‍000525 25
0xc2f0d3391fe87b1004334a57363dff89ced6bf195ef6da725b4c67d095772bbeTransfer56749002022-02-04 15:39:48193 days 1 hr ago0xadf2904d7d047672ce0a1e345ac21de9bbb1718cOUT0xdcfc8a0569abb14bbe159dd2e9863e37d23241d534.‍983179400499999 AVAX0.‍000525 25
0xad63d4dc6bde5322594aa8ba752d887d3d6a24a1a375a70fcea444fa4c19a99dWithdraw Native56748872022-02-04 15:39:22193 days 1 hr ago0xadf2904d7d047672ce0a1e345ac21de9bbb1718cOUT 0x780380eb4787775b07dfa60fb11c2cdad6a44f7c0 AVAX0.‍001512825 25
0xd5073b527cb287b57aa1289115788e7b9f09f835807152ff868de5fb3b179892Add Order56748732022-02-04 15:38:54193 days 1 hr ago0xadf2904d7d047672ce0a1e345ac21de9bbb1718cOUT0x983325dd4e4038de2eedf6750f85f9c5fcb3b0a70 AVAX0.‍01452505 25
0x64f44854398ceaeaba27329e1705f46b81e17206fb3a91699dceea02ec0291d9Add Order56748612022-02-04 15:38:30193 days 1 hr ago0xadf2904d7d047672ce0a1e345ac21de9bbb1718cOUT0x983325dd4e4038de2eedf6750f85f9c5fcb3b0a70 AVAX0.‍012890575 25
0x6c5ffd576edd245e405dd0666476a64929b46dd1ecdece969a9811db56087d65Add Order56748452022-02-04 15:37:56193 days 1 hr ago0xadf2904d7d047672ce0a1e345ac21de9bbb1718cOUT0x983325dd4e4038de2eedf6750f85f9c5fcb3b0a70 AVAX0.‍0137341 25
0xd5edd25a8b961041dd69b1a102859b536050b57c0a8975cc6243f7f216d3e135Transfer56748182022-02-04 15:37:02193 days 1 hr ago0xadf2904d7d047672ce0a1e345ac21de9bbb1718cOUT 0x780380eb4787775b07dfa60fb11c2cdad6a44f7c35 AVAX0.‍0022085 25
0x6dda34729f763452b7c7e98cb9145a5a3353136abcfb72ef6762faa8fc8fa9c3Transfer56747462022-02-04 15:34:37193 days 1 hr ago0x90c64256b75e5ca619ec816f374a26f0d14f7bce IN 0xadf2904d7d047672ce0a1e345ac21de9bbb1718c34.‍784177000499999 AVAX0.‍000525 25
[ Download CSV Export 
Latest 2 internal transactions
Parent Txn Hash Block From To Value
0x9e4c8afd16912b8037c06915e26aa9aa8667958cef1ace41bc63c5138998a3ce82418152022-04-06 13:39:48132 days 3 hrs ago 0x39d5d706b050ad19d735c27ac07c9351a1d8b8ef0xadf2904d7d047672ce0a1e345ac21de9bbb1718c0.‍01994 AVAX
0xad63d4dc6bde5322594aa8ba752d887d3d6a24a1a375a70fcea444fa4c19a99d56748872022-02-04 15:39:22193 days 1 hr ago 0x780380eb4787775b07dfa60fb11c2cdad6a44f7c0xadf2904d7d047672ce0a1e345ac21de9bbb1718c33.‍548 AVAX
[ Download CSV Export 
Loading

Contract Name:
0

Compiler Version
0

Optimization Enabled:
0

Other Settings:
-NA-
Block Transaction Gas Used Reward
Age Block Fee Address BC Fee Address Voting Power Jailed Incoming
Block Uncle Number Difficulty Gas Used Reward
Loading